• In Russia
  • List of Countries
  • For 7 days
  • Water Temperature
  • Satellite Maps
  • Weather Map
  • Weather Widgets
  • user-avatar
    Login

    Hourly Weather Qala i Naw

    Today, 18 February, Monday

    Time Temperature Precipitation Wind Pressure Humidity
    00:00 +5°C° 0 mm 2 mps 677 mmHg 73%
    01:00 +5°C° 0 mm 2 mps 677 mmHg 69%
    02:00 +5°C° 0.1 mm 2 mps 677 mmHg 65%
    03:00 +4°C° 0.1 mm 3 mps 677 mmHg 62%
    04:00 +4°C° 0.1 mm 3 mps 677 mmHg 59%
    05:00 +4°C° 0.1 mm 3 mps 677 mmHg 63%
    06:00 +5°C° 0.1 mm 2 mps 677 mmHg 67%
    07:00 +5°C° 0.1 mm 2 mps 677 mmHg 72%
    08:00 +5°C° 0.1 mm 2 mps 678 mmHg 73%
    09:00 +5°C° 0.1 mm 2 mps 678 mmHg 74%
    10:00 +5°C° 0.1 mm 2 mps 678 mmHg 75%
    11:00 +6°C° 0.1 mm 2 mps 678 mmHg 75%
    12:00 +6°C° 0.1 mm 2 mps 678 mmHg 74%
    13:00 +6°C° 0.1 mm 2 mps 677 mmHg 73%
    14:00 +7°C° 0 mm 2 mps 677 mmHg 71%
    15:00 +7°C° 0 mm 2 mps 677 mmHg 68%
    16:00 +7°C° 0 mm 2 mps 677 mmHg 66%
    17:00 +7°C° 0 mm 2 mps 677 mmHg 69%
    18:00 +7°C° 0 mm 1 mps 677 mmHg 72%
    19:00 +6°C° 0 mm 1 mps 677 mmHg 75%
    20:00 +5°C° 0 mm 2 mps 677 mmHg 72%
    21:00 +5°C° 0 mm 2 mps 677 mmHg 68%
    22:00 +5°C° 0 mm 2 mps 677 mmHg 65%
    23:00 +4°C° 0 mm 3 mps 677 mmHg 62%

    Tomorrow, 19 February, Tuesday

    Time Temperature Precipitation Wind Pressure Humidity
    00:00 +4°C° 0 mm 3 mps 677 mmHg 59%
    01:00 +4°C° 0 mm 3 mps 676 mmHg 56%
    02:00 +4°C° 0 mm 4 mps 676 mmHg 55%
    03:00 +3°C° 0 mm 4 mps 676 mmHg 53%
    04:00 +3°C° 0 mm 4 mps 676 mmHg 52%
    05:00 +3°C° 0 mm 4 mps 676 mmHg 51%
    06:00 +2°C° 0 mm 5 mps 676 mmHg 50%
    07:00 +2°C° 0 mm 5 mps 676 mmHg 49%
    08:00 +6°C° 0 mm 5 mps 676 mmHg 46%
    09:00 +8°C° 0 mm 5 mps 676 mmHg 42%
    10:00 +10°C° 0 mm 5 mps 677 mmHg 39%
    11:00 +11°C° 0 mm 4 mps 677 mmHg 39%
    12:00 +12°C° 0 mm 4 mps 677 mmHg 39%
    13:00 +12°C° 0 mm 3 mps 676 mmHg 40%
    14:00 +11°C° 1 mm 3 mps 676 mmHg 48%
    15:00 +10°C° 1 mm 2 mps 676 mmHg 55%
    16:00 +10°C° 1 mm 1 mps 676 mmHg 63%
    17:00 +9°C° 0.9 mm 1 mps 677 mmHg 67%
    18:00 +7°C° 0.9 mm 2 mps 678 mmHg 71%
    19:00 +7°C° 0.9 mm 2 mps 678 mmHg 75%
    20:00 +7°C° 0.3 mm 2 mps 679 mmHg 76%
    21:00 +6°C° 0.3 mm 2 mps 679 mmHg 76%
    22:00 +6°C° 0.3 mm 2 mps 680 mmHg 77%
    23:00 +5°C° 0.8 mm 2 mps 680 mmHg 80%

    Day after tomorrow, 20 February, Wednesday

    Time Temperature Precipitation Wind Pressure Humidity
    00:00 +3°C° 0.8 mm 3 mps 680 mmHg 83%
    01:00 +3°C° 0.8 mm 3 mps 680 mmHg 86%
    02:00 +2°C° 0.4 mm 3 mps 680 mmHg 89%
    03:00 +2°C° 0.4 mm 3 mps 680 mmHg 92%
    04:00 +1°C° 0.4 mm 3 mps 681 mmHg 95%
    05:00 +1°C° 0.4 mm 3 mps 681 mmHg 95%
    06:00 +1°C° 0.4 mm 3 mps 682 mmHg 95%
    07:00 -1°C° 0.4 mm 4 mps 682 mmHg 95%
    08:00 -1°C° 0.3 mm 4 mps 682 mmHg 95%
    09:00 -1°C° 0.3 mm 4 mps 683 mmHg 95%
    10:00 -1°C° 0.3 mm 4 mps 683 mmHg 94%
    11:00 -1°C° 0.3 mm 4 mps 683 mmHg 94%
    12:00 -1°C° 0.3 mm 5 mps 682 mmHg 93%
    13:00 -1°C° 0.3 mm 5 mps 682 mmHg 92%
    14:00 -2°C° 0.3 mm 5 mps 682 mmHg 92%
    15:00 -2°C° 0.3 mm 5 mps 682 mmHg 91%
    16:00 -2°C° 0.3 mm 5 mps 682 mmHg 91%
    17:00 -4°C° 0.2 mm 5 mps 683 mmHg 90%
    18:00 -3°C° 0.2 mm 4 mps 683 mmHg 90%
    19:00 -3°C° 0.2 mm 4 mps 684 mmHg 90%
    20:00 -4°C° 0.1 mm 4 mps 684 mmHg 89%
    21:00 -4°C° 0.1 mm 3 mps 685 mmHg 89%
    22:00 -4°C° 0.1 mm 3 mps 685 mmHg 88%
    23:00 -4°C° 0.1 mm 3 mps 685 mmHg 88%

    21 February, Thursday

    Time Temperature Precipitation Wind Pressure Humidity
    00:00 -5°C° 0.1 mm 3 mps 685 mmHg 87%
    01:00 -4°C° 0.1 mm 2 mps 685 mmHg 87%
    02:00 -4°C° 0 mm 2 mps 685 mmHg 87%
    03:00 -5°C° 0 mm 2 mps 685 mmHg 87%
    04:00 -3°C° 0 mm 1 mps 685 mmHg 87%
    05:00 -3°C° 0 mm 1 mps 685 mmHg 86%
    06:00 -4°C° 0 mm 1 mps 685 mmHg 84%
    07:00 -4°C° 0 mm 1 mps 686 mmHg 83%
    08:00 -3°C° 0 mm 1 mps 686 mmHg 76%
    09:00 -2°C° 0 mm 1 mps 686 mmHg 70%
    10:00 -1°C° 0 mm 1 mps 686 mmHg 63%
    11:00 0°C° 0 mm 1 mps 685 mmHg 62%
    12:00 +1°C° 0 mm 1 mps 685 mmHg 61%
    13:00 +1°C° 0 mm 2 mps 684 mmHg 60%
    14:00 +2°C° 0 mm 2 mps 684 mmHg 60%
    15:00 +2°C° 0 mm 2 mps 684 mmHg 59%
    16:00 +2°C° 0 mm 2 mps 684 mmHg 59%
    17:00 +1°C° 0 mm 2 mps 684 mmHg 62%
    18:00 +2°C° 0 mm 1 mps 684 mmHg 65%
    19:00 +1°C° 0 mm 1 mps 685 mmHg 67%
    20:00 -1°C° 0 mm 2 mps 685 mmHg 66%
    21:00 -1°C° 0 mm 2 mps 685 mmHg 64%
    22:00 -1°C° 0 mm 2 mps 685 mmHg 62%
    23:00 -1°C° 0 mm 2 mps 685 mmHg 60%

    22 February, Friday

    Time Temperature Precipitation Wind Pressure Humidity
    00:00 -1°C° 0 mm 2 mps 684 mmHg 58%
    01:00 -1°C° 0 mm 2 mps 684 mmHg 56%
    02:00 -1°C° 0 mm 2 mps 684 mmHg 54%
    03:00 -1°C° 0 mm 3 mps 684 mmHg 51%
    04:00 -1°C° 0 mm 3 mps 683 mmHg 49%
    05:00 0°C° 0 mm 3 mps 684 mmHg 47%
    06:00 0°C° 0 mm 3 mps 684 mmHg 45%
    07:00 0°C° 0 mm 3 mps 684 mmHg 44%
    08:00 +2°C° 0 mm 3 mps 684 mmHg 42%
    09:00 +4°C° 0 mm 3 mps 684 mmHg 41%
    10:00 +7°C° 0 mm 2 mps 684 mmHg 39%
    11:00 +8°C° 0 mm 2 mps 683 mmHg 39%
    12:00 +10°C° 0 mm 1 mps 682 mmHg 38%
    13:00 +11°C° 0 mm 1 mps 682 mmHg 37%
    14:00 +11°C° 0 mm 1 mps 682 mmHg 36%
    15:00 +10°C° 0 mm 0 mps 682 mmHg 34%
    16:00 +10°C° 0 mm 0 mps 681 mmHg 33%
    17:00 +9°C° 0 mm 1 mps 682 mmHg 35%
    18:00 +7°C° 0 mm 2 mps 682 mmHg 36%
    19:00 +4°C° 0 mm 3 mps 682 mmHg 38%
    20:00 +4°C° 0 mm 3 mps 682 mmHg 40%
    21:00 +3°C° 0 mm 3 mps 682 mmHg 41%
    22:00 +3°C° 0 mm 3 mps 683 mmHg 43%
    23:00 +2°C° 0 mm 3 mps 683 mmHg 44%

    23 February, Saturday

    Time Temperature Precipitation Wind Pressure Humidity
    00:00 +2°C° 0 mm 3 mps 682 mmHg 44%
    01:00 +2°C° 0 mm 3 mps 682 mmHg 45%
    02:00 +2°C° 0 mm 3 mps 682 mmHg 45%
    03:00 +2°C° 0 mm 3 mps 682 mmHg 45%
    04:00 +1°C° 0 mm 3 mps 682 mmHg 45%
    05:00 +1°C° 0 mm 3 mps 682 mmHg 44%
    06:00 +2°C° 0 mm 3 mps 682 mmHg 44%
    07:00 +1°C° 0 mm 4 mps 683 mmHg 44%
    08:00 +4°C° 0 mm 3 mps 683 mmHg 41%
    09:00 +7°C° 0 mm 3 mps 683 mmHg 39%
    10:00 +8°C° 0 mm 3 mps 683 mmHg 37%
    11:00 +9°C° 0 mm 2 mps 682 mmHg 37%
    12:00 +10°C° 0 mm 2 mps 682 mmHg 37%
    13:00 +12°C° 0 mm 1 mps 681 mmHg 37%
    14:00 +12°C° 0 mm 1 mps 681 mmHg 36%
    15:00 +12°C° 0 mm 1 mps 681 mmHg 35%
    16:00 +12°C° 0 mm 1 mps 681 mmHg 34%
    17:00 +11°C° 0 mm 1 mps 681 mmHg 38%
    18:00 +9°C° 0 mm 2 mps 681 mmHg 42%
    19:00 +8°C° 0 mm 3 mps 681 mmHg 45%
    20:00 +7°C° 0 mm 3 mps 681 mmHg 48%
    21:00 +7°C° 0 mm 3 mps 682 mmHg 51%
    22:00 +5°C° 0 mm 4 mps 682 mmHg 55%
    23:00 +5°C° 0 mm 3 mps 682 mmHg 55%
    Show more